This demonstration page uses our WeatherBlox Daily Observations layout. Learn more.

40.92945, -100.16068

Hourly Observations for August 8, 2017

Temp ( °F °C ) Dew Point ( °F °C ) Humidity (%) Winds ( mph kmh ) Pressure ( in mb ) Visibility ( mi km ) Precip ( " mm )
12:15 am 00:15 Clear 62 16.4 58 14.4 88 88 E 3 6 30.18 1022 10 16.09344 0 0
12:35 am 00:35 Clear 61 16.2 58 14.5 90 90 E 3 6 30.18 1022 10 16.09344 0 0
12:55 am 00:55 Clear 60 15.8 58 14.3 91 91 E 3 6 30.18 1022 10 16.09344 0 0
1:15 am 01:15 Clear 61 16 58 14.5 91 91 Calm 30.18 1022 10 16.09344 0 0
1:35 am 01:35 Clear 60 15.7 58 14.2 91 91 Calm 30.18 1022 10 16.09344 0 0
1:55 am 01:55 Clear 60 15.7 57 14 90 90 SE 5 7 30.18 1022 10 16.09344 0 0
2:15 am 02:15 Clear 60 15.6 57 14.1 91 91 Calm 30.18 1022 10 16.09344 0 0
2:35 am 02:35 Clear 60 15.8 58 14.3 91 91 SE 5 7 30.18 1022 10 16.09344 0 0
2:55 am 02:55 Clear 60 15.6 58 14.2 91 91 ESE 3 6 30.18 1022 7 11.265408 0 0
3:15 am 03:15 Clear with Mist and Fog 59 14.9 57 13.7 93 93 Calm 30.21 1023 5 8.04672 0 0
3:35 am 03:35 Clear with Mist and Fog 58 14.7 57 13.7 94 94 SE 5 7 30.21 1023 5 8.04672 0 0
3:55 am 03:55 Clear with Mist and Fog 57 13.8 55 12.7 93 93 ENE 3 6 30.21 1023 4 6.437376 0 0
4:15 am 04:15 Clear with Mist and Fog 58 14.3 56 13.5 95 95 E 3 6 30.21 1023 2.5 4.02336 0 0
4:35 am 04:35 Clear with Mist and Fog 58 14.4 56 13.5 94 94 Calm 30.21 1023 3 4.828032 0 0
4:55 am 04:55 Clear with Mist and Fog 58 14.3 56 13.5 95 95 Calm 30.21 1023 4 6.437376 0 0
5:15 am 05:15 Clear with Mist and Fog 56 13.6 55 12.6 94 94 Calm 30.21 1023 2.5 4.02336 0 0
5:35 am 05:35 Mostly Cloudy with Mist and Fog 56 13.1 54 12.2 94 94 E 3 6 30.21 1023 1.25 2.01168 0 0
5:55 am 05:55 Cloudy with Fog 56 13.1 54 12.3 95 95 Calm 30.21 1023 0.25 0.402336 0 0
6:15 am 06:15 Mostly Cloudy with Mist and Fog 55 12.9 54 12 94 94 Calm 30.21 1023 0.75 1.207008 0 0
6:35 am 06:35 Cloudy with Fog 55 12.6 53 11.7 94 94 ENE 3 6 30.21 1023 0.25 0.402336 0 0
6:55 am 06:55 Cloudy with Fog 55 12.8 54 12.1 96 96 ENE 3 6 30.21 1023 0 0 0 0
7:15 am 07:15 Cloudy with Fog 55 12.9 54 12.2 96 96 ENE 5 7 30.21 1023 0 0 0 0
7:35 am 07:35 Cloudy with Fog 56 13.5 55 12.8 96 96 Calm 30.21 1023 0 0 0 0
7:55 am 07:55 Cloudy with Fog 58 14.2 56 13.5 96 96 E 3 6 30.21 1023 0.25 0.402336 0 0
8:15 am 08:15 Partly Cloudy with Mist and Fog 60 15.3 58 14.6 96 96 Calm 30.18 1022 2.5 4.02336 0 0
8:35 am 08:35 Sunny with Mist and Fog 61 16 60 15.3 96 96 SSE 3 6 30.18 1022 5 8.04672 0 0
8:55 am 08:55 Sunny 63 17 60 15.7 92 92 SSE 6 9 30.18 1022 10 16.09344 0 0
9:15 am 09:15 Sunny 64 17.7 60 15.5 87 87 SE 5 7 30.18 1022 10 16.09344 0 0
9:35 am 09:35 Sunny 65 18.5 60 15.7 84 84 SSE 5 7 30.18 1022 10 16.09344 0 0
9:55 am 09:55 Sunny 66 19.1 61 16.1 83 83 SSE 6 9 30.15 1021 10 16.09344 0 0
10:15 am 10:15 Sunny 68 20.2 62 16.5 79 79 SSE 7 11 30.15 1021 10 16.09344 0 0
10:35 am 10:35 Sunny 72 22.1 62 16.4 70 70 S 8 13 30.12 1020 10 16.09344 0 0
10:55 am 10:55 Partly Cloudy 73 22.8 62 16.5 68 68 SSE 8 13 30.12 1020 10 16.09344 0 0
11:15 am 11:15 Mostly Cloudy 73 22.9 60 15.5 63 63 S 10 17 30.12 1020 10 16.09344 0 0
11:35 am 11:35 Mostly Cloudy 74 23.2 61 16.2 65 65 SSW 10 17 30.12 1020 10 16.09344 0 0
11:55 am 11:55 Partly Cloudy 76 24.4 59 15.2 57 57 S 10 17 30.12 1020 10 16.09344 0 0
12:15 pm 12:15 Mostly Cloudy 75 24.1 60 15.4 58 58 S 9 15 30.09 1019 10 16.09344 0 0
12:35 pm 12:35 Partly Cloudy 78 25.3 59 15.2 54 54 S 9 15 30.06 1018 10 16.09344 0 0
12:55 pm 12:55 Partly Cloudy 77 25.2 58 14.2 51 51 S 10 17 30.06 1018 10 16.09344 0 0
1:15 pm 13:15 Partly Cloudy 77 25 58 14.7 53 53 SSE 13 20 30.09 1019 10 16.09344 0 0
1:35 pm 13:35 Mostly Cloudy 77 25 58 14.3 52 52 SSE 12 19 30.09 1019 10 16.09344 0 0
1:55 pm 13:55 Cloudy 79 25.9 57 14.1 48 48 SSE 13 20 30.06 1018 10 16.09344 0 0
2:15 pm 14:15 Mostly Cloudy 79 25.9 58 14.2 49 49 S 12 19 30.03 1017 10 16.09344 0 0
2:35 pm 14:35 Partly Cloudy 78 25.5 57 14.1 49 49 S 12 19 30.03 1017 10 16.09344 0 0
2:55 pm 14:55 Mostly Cloudy 78 25.4 58 14.5 51 51 S 13 20 30.03 1017 10 16.09344 0 0
3:15 pm 15:15 Cloudy 76 24.7 58 14.3 52 52 S 14 22 30.06 1018 10 16.09344 0 0
3:35 pm 15:35 Mostly Cloudy 77 25 58 14.4 52 52 S 12 19 30.03 1017 10 16.09344 0 0
3:55 pm 15:55 Cloudy 76 24.6 58 14.3 53 53 SSE 12 19 30 1016 10 16.09344 0 0
4:15 pm 16:15 Mostly Cloudy 77 25.1 56 13.6 49 49 S 14 22 30 1016 10 16.09344 0 0
4:35 pm 16:35 Mostly Cloudy 76 24.7 58 14.2 52 52 SSE 9 15 30 1016 7 11.265408 0 0
4:55 pm 16:55 Cloudy 76 24.3 58 14.2 53 53 SSE 12 19 30.03 1017 10 16.09344 0 0
5:15 pm 17:15 Cloudy 76 24.4 58 14.7 55 55 S 9 15 29.97 1015 10 16.09344 0 0
5:35 pm 17:35 Cloudy 77 25 59 15 54 54 S 9 15 29.97 1015 10 16.09344 0 0
5:55 pm 17:55 Cloudy 78 25.4 58 14.6 51 51 SSW 14 22 29.97 1015 10 16.09344 0 0
6:15 pm 18:15 Mostly Cloudy 78 25.3 59 14.9 53 53 S 14 22 29.97 1015 10 16.09344 0 0
6:35 pm 18:35 Mostly Cloudy 77 25.2 58 14.4 51 51 SSW 18 30 29.97 1015 10 16.09344 0 0
6:55 pm 18:55 Cloudy 75 23.8 58 14.5 56 56 S 10 17 30 1016 10 16.09344 0 0
7:15 pm 19:15 Mostly Cloudy 75 24 58 14.4 55 55 S 10 17 30 1016 10 16.09344 0 0
7:35 pm 19:35 Cloudy 76 24.2 59 14.9 56 56 S 9 15 30 1016 10 16.09344 0 0
7:55 pm 19:55 Cloudy 73 22.9 59 15 61 61 SSW 8 13 30 1016 10 16.09344 0 0
8:15 pm 20:15 Cloudy 72 22.3 60 15.4 65 65 S 6 9 30 1016 10 16.09344 0 0
8:35 pm 20:35 Cloudy 71 21.6 60 15.8 70 70 S 5 7 30 1016 10 16.09344 0 0
8:55 pm 20:55 Cloudy 70 21.3 60 15.6 70 70 S 5 7 30 1016 10 16.09344 0 0
9:15 pm 21:15 Partly Cloudy 69 20.3 60 15.7 75 75 S 5 7 30.03 1017 10 16.09344 0 0
9:35 pm 21:35 Mostly Cloudy 67 19.7 61 16 79 79 S 5 7 30.03 1017 10 16.09344 0 0
9:55 pm 21:55 Mostly Cloudy 67 19.5 61 16 80 80 SSE 7 11 30.03 1017 10 16.09344 0 0
10:15 pm 22:15 Mostly Cloudy 67 19.7 61 16 79 79 SSE 6 9 30.03 1017 10 16.09344 0 0
10:35 pm 22:35 Cloudy 67 19.7 61 16.3 81 81 S 5 7 30.03 1017 10 16.09344 0 0
10:55 pm 22:55 Cloudy 67 19.2 61 16.3 83 83 SSE 3 6 30.06 1018 10 16.09344 0 0
11:15 pm 23:15 Cloudy 68 19.8 61 16.3 80 80 Calm 30.06 1018 10 16.09344 0 0
11:35 pm 23:35 Cloudy 68 20 61 16.3 79 79 Calm 30.06 1018 10 16.09344 0 0
11:55 pm 23:55 Cloudy 68 20.1 61 16.2 78 78 Calm 30.06 1018 10 16.09344 0 0

Powered by AerisWeather